This is the latest recevied weather packets stored in our database for station/object DL2GFH-3. If no packets are shown the sender has not sent any weather packets the latest 10 day(s).
| Time | Temp. | Humidity | Pressure | Rain* | Wind** | Luminosity | Snow |
|---|---|---|---|---|---|---|---|
| 1777665313 | 18.89° C | 26% | 1023.3 hPa | - | - | - | - |
| 1777664408 | 19.44° C | 26% | 1023.2 hPa | - | - | - | - |
| 1777663502 | 19.44° C | 26% | 1023.1 hPa | - | - | - | - |
| 1777662597 | 19.44° C | 26% | 1023 hPa | - | - | - | - |
| 1777661692 | 20° C | 25% | 1022.9 hPa | - | - | - | - |
| 1777660786 | 20° C | 25% | 1022.8 hPa | - | - | - | - |
| 1777659881 | 20° C | 25% | 1022.7 hPa | - | - | - | - |
| 1777658975 | 20.56° C | 25% | 1022.5 hPa | - | - | - | - |
| 1777658070 | 20.56° C | 24% | 1022.6 hPa | - | - | - | - |
| 1777657165 | 20.56° C | 24% | 1022.5 hPa | - | - | - | - |
| 1777656259 | 21.11° C | 24% | 1022.5 hPa | - | - | - | - |
| 1777655354 | 21.11° C | 23% | 1022.5 hPa | - | - | - | - |
| 1777654448 | 21.67° C | 23% | 1022.4 hPa | - | - | - | - |
| 1777653543 | 22.22° C | 22% | 1022.5 hPa | - | - | - | - |
| 1777652637 | 22.78° C | 22% | 1022.5 hPa | - | - | - | - |
| 1777651732 | 22.78° C | 21% | 1022.6 hPa | - | - | - | - |
| 1777650827 | 21.11° C | 23% | 1022.7 hPa | - | - | - | - |
| 1777649921 | 21.11° C | 23% | 1022.7 hPa | - | - | - | - |
| 1777649016 | 21.11° C | 23% | 1022.8 hPa | - | - | - | - |
| 1777646300 | 21.67° C | 22% | 1023.1 hPa | - | - | - | - |
| 1777645394 | 21.67° C | 22% | 1023.1 hPa | - | - | - | - |
| 1777644489 | 21.67° C | 22% | 1023.3 hPa | - | - | - | - |
| 1777643583 | 22.22° C | 22% | 1023.3 hPa | - | - | - | - |
| 1777642678 | 22.22° C | 21% | 1023.4 hPa | - | - | - | - |
| 1777641773 | 22.78° C | 21% | 1023.5 hPa | - | - | - | - |
* Rain since midnight (hover to see other rain measurements)
** Current wind speed in m/s (hover to see current wind gust speed)